Content
SEND FEEDBACK

Daily
Averages
Monthly
Summary
United States of America

LINCOLN ROCK, ALASKA


Home > North America > United States > Alaska
Elevation: 3 feet     Latitude: 56 03N     Longitude: 132 46W

WEATHER
 
SELECT A DAY
Number of Records: 160,884;   Date Range: 4/7/98 - 7/26/14
 
SHARE

PRINT THIS DATA

[ ← Previous Day ]
WEATHER ALMANAC - JANUARY 23, 2013
[ Next Day → ]
[ °C ]   °F
Weather ElementAverageHighLow
Temperature55.6 °F72 °F (2:53 pm)39.9 °F (2:53 am)
Dewpoint47.2 °F53.1 °F (5:53 pm)37.9 °F (2:53 am)
Humidity76 %97 % (7:53 am)48 % (2:53 pm)
Barometer30.22 in30.29 in (10:53 am)30.15 in (6:53 pm)
Wind Speed7.7 mph19.6 mph (10:53 am)
Wind Gust23 mph (9:53 am)
Weather ElementAverage
Visibility8.8 mi
Wind DirectionSSE (145.4 °)

Weather ElementTotal
Precipitation---
Heating Degree Days9.1 (Base 65)
Growing Degree Days6 (Base 50)
Averaged from 24 records on January 23, 2013
WEATHER CONDITIONS BREAKOUT
WIND DIRECTION BREAKOUT
WEATHER BY HOUR - JANUARY 23, 2013
[ °C ]   °F
Local TimeTemperatureDewpointHumidityBarometerVisibilityWind DirectionWind SpeedGust SpeedPrecipitationEventsConditions
1:53 AM43.0 °F39.9 °F89 %30.25 in8.0 miCalmClear
2:53 AM39.9 °F37.9 °F93 %30.25 in7.0 miSSE (160°)3.5 mphClear
3:53 AM41.0 °F39.0 °F93 %30.25 in6.0 miCalmScattered Clouds
4:53 AM41.0 °F37.9 °F89 %30.26 in8.0 miCalmMostly Cloudy
5:53 AM42.1 °F39.9 °F92 %30.25 in4.0 miSSE (160°)4.6 mphPartly Cloudy
5:58 AM41.0 °F39.2 °F93 %30.23 in8.0 miCalmPartly Cloudy
6:53 AM41.0 °F39.9 °F96 %30.27 in8.0 miCalmClear
7:53 AM43.0 °F42.1 °F97 %30.28 in6.0 miSSE (160°)4.6 mphScattered Clouds
8:53 AM50.0 °F46.9 °F89 %30.28 in7.0 miSSE (160°)5.8 mphClear
9:53 AM61.0 °F51.1 °F70 %30.28 in10.0 miSW (220°)17.3 mph23.0 mphClear
10:53 AM64.9 °F50.0 °F58 %30.29 in10.0 miSW (220°)19.6 mphClear
11:53 AM66.0 °F50.0 °F56 %30.27 in10.0 miSSW (210°)12.7 mphClear
12:53 PM68.0 °F51.1 °F55 %30.24 in10.0 miSSW (210°)12.7 mphClear
1:53 PM70.0 °F51.1 °F51 %30.20 in10.0 miSSW (210°)9.2 mphClear
2:53 PM72.0 °F51.1 °F48 %30.18 in10.0 miSSW (210°)13.8 mphClear
3:53 PM72.0 °F52.0 °F49 %30.17 in10.0 miSSW (210°)13.8 mphClear
4:53 PM70.0 °F52.0 °F53 %30.17 in10.0 miSSW (200°)12.7 mphClear
5:53 PM66.0 °F53.1 °F63 %30.16 in10.0 miSouth (170°)12.7 mphClear
6:53 PM62.1 °F53.1 °F72 %30.15 in10.0 miSouth (180°)10.4 mphClear
7:53 PM60.1 °F53.1 °F78 %30.17 in10.0 miSSE (160°)8.1 mphClear
8:53 PM57.9 °F52.0 °F81 %30.18 in10.0 miSSE (160°)4.6 mphClear
9:53 PM54.0 °F50.0 °F86 %30.17 in10.0 miSouth (180°)6.9 mphClear
10:53 PM55.9 °F51.1 °F84 %30.16 in10.0 miSSE (160°)5.8 mphClear
11:53 PM52.0 °F48.9 °F89 %30.17 in9.0 miSSE (150°)5.8 mphClear
Hourly data recorded from KTKI, located miles away from Lincoln Rock, Alaska







STORIES FROM OUR PARTNERS